Location: Bacharowice
(49.9333°N, 19.5833°E)
Time: 23:47:30
(UTC+00:00)

Cosmos 2369 Rocket - Pass Details

Date: 11 May 2021
Orbit: 827 x 854 km, 71.0° (Epoch: 21 June)

Event Time Altitude Azimuth Distance (km) Brightness Sun altitude
Exits shadow 20:35:41 13° 101° (E) 2,218 4.0 -16.8°
Maximum altitude 20:36:05 13° 96° (E) 2,213 4.0 -16.8°
Drops below altitude 10° 20:38:40 10° 68° (ENE) 2,457 4.5 -17.0°
Sets 20:42:26 0° 43° (NE) 3,404 5.6 -17.3°
